Location: Cactus School
(34.5700°N, 118.0931°W)
Time: 06:10:03
(UTC-08:00)

ISS - Pass Details

Date: 17 November 2017
Orbit: 402 x 407 km, 51.6° (Epoch: 19 November)

Event Time Altitude Azimuth Distance (km) Brightness Sun altitude
Exits shadow 05:04:32 30° 344° (NNW) 742 -2.8 -17.3°
Maximum altitude 05:05:44 47° 40° (NE) 537 -3.1 -17.0°
Drops below altitude 10° 05:08:52 10° 116° (ESE) 1,445 0.2 -16.4°
Sets 05:10:59 0° 122° (ESE) 2,301 1.4 -16.0°
